Regional Weather Roundup
Issued by NWS

Home | Current Version | Previous Version | Text Only | Print | Product List | Glossary Off
Versions: 1 2 3 4 5 6 7 8 9 10 11 12 13 14 15 16 17 18 19 20 21 22 23 24 25 26 27 28 29 30 31 32 33 34 35 36 37 38 39 40 41 42 43 44 45 46 47 48 49 50

000
ASUS45 KBOU 240907
RWRCO

WEATHER ROUNDUP FOR COLORADO
NATIONAL WEATHER SERVICE DENVER/BOULDER CO
300 AM MDT SUN SEP 24 2017

NOTE: "FAIR" INDICATES FEW OR NO CLOUDS BELOW 12000 FEET WITH NO
SIGNIFICANT WEATHER AND/OR OBSTRUCTIONS TO VISIBILITY.

COZ001>005-013-030-031-241000-
...NORTHWEST COLORADO...

CITY           SKY/WX    TMP DP  RH WIND       PRES   REMARKS
CRAIG          LGT RAIN  40  38  93 S6        29.90R
HAYDEN         FAIR      40  36  86 E13       29.89F
MEEKER         FAIR      38  36  92 VRB5      29.89F
RABBIT EARS PA FAIR      32  32 100 SE5       30.03S WCI  27
STEAMBOAT SPGS FAIR      33  33  96 CALM      29.90F
WALDEN         CLOUDY    32  30  93 CALM      29.98S VSB<1/4
$$

COZ006>008-011-241000-
...WEST CENTRAL VALLEYS...

CITY           SKY/WX    TMP DP  RH WIND       PRES   REMARKS
GRAND JUNCTION FAIR      40  40 100 E6        29.81S
MONTROSE       FAIR      41  39  93 S6        29.87S
EAGLE          MOCLDY    34  33  96 E8        29.95S WCI  27
RIFLE          FAIR      41  39  93 CALM      29.86S
DELTA          NOT AVBL
NUCLA          FAIR      46  37  71 SE3       29.89S
$$

COZ017>023-064>068-241000-
...SOUTHWEST COLORADO...

CITY           SKY/WX    TMP DP  RH WIND       PRES   REMARKS
DURANGO        FAIR      36  36 100 E6        29.93R
CORTEZ         FAIR      45  37  73 W6        29.89R
PAGOSA SPRINGS MOCLDY    39  39  99 CALM      29.99R
TELLURIDE      FAIR      40  28  62 E5        29.97F
WOLF CREEK PAS CLOUDY    28  28 100 S12       30.16R WCI  18
$$

COZ009-010-012-014-032>034-037-058>063-241000-
...CENTRAL COLORADO...

CITY           SKY/WX    TMP DP  RH WIND       PRES   REMARKS
ASPEN          FAIR      36  33  89 CALM      29.92S
BUENA VISTA    CLOUDY    41  38  91 CALM      29.99S
COPPER MTN     FAIR      36  23  60 MISG      30.10S
BERTHOUD PASS  FAIR      25  16  68 S17G26    30.12S WCI  11
COTTONWOOD PAS   N/A     43  39  87 SE5       30.04S
GUNNISON       FAIR      33  31  92 N3        29.97R
KREMMLING      CLOUDY    37  36  93 CALM      29.98S
LEADVILLE      MOCLDY    32  30  92 NE7       30.02S WCI  26
MONARCH PASS   FAIR      32  28  86 S14G20    30.22R WCI  22
SALIDA         CLOUDY    46  42  89 CALM      30.04S
SUNLIGHT       CLOUDY    32  30  93 CALM      30.06S
WILKERSON PASS FOG       32  32 100 S7        30.12S VSB 1/2 WCI  26
$$

COZ069>075-241000-
...SAN LUIS VALLEY/SANGRE DE CRISTO MOUNTAINS...

CITY           SKY/WX    TMP DP  RH WIND       PRES   REMARKS
ALAMOSA        CLOUDY    41  40  96 SW6       29.97S
DEL NORTE      FAIR      37  35  93 W8        30.00R
LA VETA PASS   FAIR      36  34  93 S10G21    30.19S
SAGUACHE       FAIR      37  37 100 NW3       30.00S
$$

COZ035-036-038>040-241000-
...NORTHERN COLORADO FRONT RANGE...

CITY           SKY/WX    TMP DP  RH WIND       PRES   REMARKS
DENVER INTL AP CLOUDY    46  43  89 CALM      29.98F
DMNS CITY PARK   N/A     45  45  99 SE5       29.98S
AURORA         CLOUDY    44  44 100 CALM      29.98F
FRONT RANGE AP CLOUDY    45  45 100 N6        29.99S
ERIE MUNI ARPT CLOUDY    46  44  92 CALM      30.03S
BOULDER MUN AP CLOUDY    45  45 100 CALM      29.97S
CENTENNIAL     CLOUDY    44  43  96 CALM      29.98F
BROOMFIELD     CLOUDY    45  45 100 CALM      29.99R
FORT COLLINS   CLOUDY    46  45  96 CALM      29.98F
LONGMONT       CLOUDY    48  46  91 CALM      29.99F FOG
$$

COZ041-046-047-076>085-087-088-241000-
...PIKES PEAK/PALMER DIVIDE AND SOUTHERN FOOTHILLS...

CITY           SKY/WX    TMP DP  RH WIND       PRES   REMARKS
COLO. SPRINGS  LGT RAIN  46  42  86 NW10      29.99R
A. F. ACADEMY  DRIZZLE   43  43 100 N10       29.98F
SCHRIEVER AFB  LGT RAIN  44  41  89 MISG      29.97S
CHEYENNE MTN   LGT RAIN  44  42  93 CALM      29.93R
ELLICOTT       CLOUDY   N/A N/A N/A N9        29.95S
FALCON         CLOUDY    42  40  93 N12       29.99S
FORT CARSON    LGT RAIN  47  42  85 N14       29.95R
LIMON            N/A    N/A N/A N/A MISG      29.97R
MONUMENT HILL  CLOUDY    37  37 100 N3        30.01F FOG
CANON CITY     CLOUDY    52  45  76 SE7       29.95S
WALSENBURG     CLOUDY    48  46  93 N3        29.97R
TRINIDAD       CLOUDY    48  48 100 NW13      29.95S
$$

COZ042>045-048>051-090-091-241000-
...NORTHEAST COLORADO...

CITY           SKY/WX    TMP DP  RH WIND       PRES   REMARKS
GREELEY ARPT   CLOUDY    47  45  93 W5        29.98F
AKRON          CLOUDY    44  43  96 NW15      29.92F
BURLINGTON     RAIN      49  49 100 NE12      29.90R FOG
WRAY           LGT RAIN N/A N/A N/A N10       29.89R
YUMA           CLOUDY    45  45 100 N9        29.90R
STERLING       CLOUDY    46  45  93 NW8       29.92R
HOLYOKE        LGT RAIN  48  45  87 N9G17     29.90S
FORT MORGAN    CLOUDY    47  45  93 W10       29.96S
$$

COZ086-089-092>099-241000-
...SOUTHEAST COLORADO...

CITY           SKY/WX    TMP DP  RH WIND       PRES   REMARKS
PUEBLO         CLOUDY    51  47  86 CALM      29.95R
LA JUNTA       LGT RAIN  52  50  93 NE10      29.89F
LAMAR          LGT RAIN  53  51  93 W3        29.91R
SPRINGFIELD      N/A     55  55 100 S9        29.92F
$$



USA.gov is the U.S. government's official web portal to all federal, state and local government web resources and services.